Redmond, OR

11:52 AM PDT on July 27, 2017 (GMT -0700)
Roberts Field Airport

Weather History for KRDM - September, 2013

Change the Weather History Date:

Sunday, September 15, 2013

  Actual Average Record
Temperature  
Mean Temperature 72 °F 58 °F  
Max Temperature 92 °F 77 °F 97 °F (1979)
Min Temperature 52 °F 38 °F 23 °F (1970)
Degree Days  
Heating Degree Days 0 8  
Month to date heating degree days 21 96  
Since 1 July heating degree days 57 245  
Cooling Degree Days 7 0  
Month to date cooling degree days 36 14  
Year to date cooling degree days 350 220  
Growing Degree Days 22 (Base 50)    
Moisture  
Dew Point 43 °F    
Average Humidity 41    
Maximum Humidity 71    
Minimum Humidity 10    
Precipitation  
Precipitation 0.00 in 0.01 in 0.48 in (1963)
Month to date precipitation 0.02 0.20  
Year to date precipitation 3.10 5.93  
Sea Level Pressure  
Sea Level Pressure 29.70 in    
Wind  
Wind Speed 7 mph (West)    
Max Wind Speed 25 mph    
Max Gust Speed 31 mph    
Visibility 10 miles    
Events      
T = Trace of Precipitation, MM = Missing Value Source: NWS Daily Summary

Daily Weather History Graph

Daily Weather History Graph

Search for Another Location

Airport or City:

Trip Planner

Search our weather history database for the weather conditions in past years. The results will help you decide how hot, cold, wet, or windy it might be!

Date:

Astronomy

Sep. 15, 2013 Rise Set
Actual Time 6:44 AM PDT 7:14 PM PDT
Civil Twilight 6:14 AM PDT 7:43 PM PDT
Nautical Twilight 5:40 AM PDT 8:17 PM PDT
Astronomical Twilight 5:04 AM PDT 8:53 PM PDT
Moon 4:51 PM PDT (9/15) 2:20 AM PDT (9/15)
Length of Visible Light 13h 28m
Length of Day
12h 30m
Waxing Gibbous, 83% of the Moon is Illuminated
Sep 15
Waxing Gibbous
Sep 19
Full
Sep 26
Last Quarter
Oct 4
New
Oct 11
First Quarter

Hourly Weather History & Observations

Time (PDT) Temp. Dew Point Humidity Pressure Visibility Wind Dir Wind Speed Gust Speed Precip Events Conditions
12:56 AM 64.9 °F 46.9 °F 52% 29.72 in 10.0 mi South 3.5 mph - N/A   Clear
1:56 AM 61.0 °F 46.0 °F 58% 29.73 in 10.0 mi South 4.6 mph - N/A   Clear
2:56 AM 59.0 °F 45.0 °F 60% 29.72 in 10.0 mi South 5.8 mph - N/A   Clear
3:56 AM 55.9 °F 45.0 °F 67% 29.72 in 10.0 mi Calm Calm - N/A   Clear
4:56 AM 54.0 °F 44.1 °F 69% 29.71 in 10.0 mi SSE 3.5 mph - N/A   Clear
5:56 AM 54.0 °F 44.1 °F 69% 29.71 in 10.0 mi Calm Calm - N/A   Clear
6:56 AM 55.0 °F 45.0 °F 69% 29.71 in 10.0 mi Calm Calm - N/A   Clear
7:56 AM 62.1 °F 46.0 °F 56% 29.71 in 10.0 mi Calm Calm - N/A   Partly Cloudy
8:56 AM 71.1 °F 48.9 °F 45% 29.70 in 10.0 mi SSE 4.6 mph - N/A   Mostly Cloudy
9:56 AM 75.9 °F 48.0 °F 37% 29.69 in 10.0 mi ENE 5.8 mph - N/A   Clear
10:56 AM 80.1 °F 45.0 °F 29% 29.69 in 10.0 mi Calm Calm - N/A   Clear
11:56 AM 82.9 °F 43.0 °F 24% 29.67 in 10.0 mi Calm Calm - N/A   Clear
12:56 PM 87.1 °F 41.0 °F 20% 29.64 in 10.0 mi West 9.2 mph - N/A   Partly Cloudy
1:56 PM 90.0 °F 28.9 °F 11% 29.62 in 10.0 mi WSW 15.0 mph 24.2 mph N/A   Clear
2:56 PM 91.0 °F 28.9 °F 11% 29.61 in 10.0 mi SSW 15.0 mph 19.6 mph N/A   Clear
3:56 PM 88.0 °F 28.0 °F 12% 29.60 in 10.0 mi WSW 8.1 mph - N/A   Clear
4:56 PM 82.0 °F 46.0 °F 28% 29.62 in 10.0 mi NW 18.4 mph 26.5 mph N/A   Clear
5:56 PM 73.9 °F 45.0 °F 35% 29.67 in 10.0 mi NW 17.3 mph 26.5 mph N/A   Clear
6:56 PM 71.1 °F 39.0 °F 31% 29.71 in 10.0 mi NNW 16.1 mph - N/A   Clear
7:56 PM 66.0 °F 43.0 °F 43% 29.74 in 10.0 mi North 3.5 mph - N/A   Clear
8:56 PM 61.0 °F 45.0 °F 56% 29.78 in 10.0 mi NNW 10.4 mph - N/A   Clear
9:56 PM 59.0 °F 44.1 °F 58% 29.79 in 10.0 mi North 9.2 mph - N/A   Clear
10:56 PM 57.9 °F 45.0 °F 62% 29.81 in 10.0 mi NNE 5.8 mph - N/A   Mostly Cloudy
11:56 PM 55.0 °F 45.0 °F 69% 29.83 in 10.0 mi East 4.6 mph - N/A   Clear